Flag for Germany Weather past 2 weeks in Neuburg an der Donau, Bavaria, Germany

Now
75 °F

Mild.


Feels Like: 78 °F
Forecast: 54 / 77 °F
Wind: 5 mph from Northwest

Location: Neuburg / Donau

Current Time: Jul 24, 2014 at 8:51:38 PM

Latest Report: Jul 24, 2014 at 8:20 PM


Visibility: N/A

Pressure: 29.89 "Hg

Humidity: 47%

Dew point: 54 °F

Location of Neuburg an der DonauLocation

Historic Weather in Neuburg an der Donau — Graph

°F

Neuburg an der Donau temperature yesterday

Maximum temperature yesterday: 81 °F (at 3:20 PM)
Minimum temperature yesterday: 57 °F (at 3:20 AM)
Average temperature yesterday: 69 °F

Past Weeks' High & Low Weather Summary

 TemperatureHumidityPressure
High91 °F (Jul 19, 4:20 PM)100% (Jul 10, 11:20 PM)30.21 "Hg (Jul 10, 11:20 PM)
Low52 °F (Jul 9, 11:20 PM)23% (Jul 19, 5:20 PM)29.77 "Hg (Jul 10, 6:20 AM)
Average68 °F71%29.96 "Hg
* Reported Jul 9 7:20 PM — Jul 24 7:20 PM, Neuburg an der Donau, Weather by CustomWeather, © 2014

Note: Actual official high and low records may vary slightly from our data, if they occured in-between our weather recording intervals... More about our weather records

Advertising

Neuburg an der Donau weather history for previous 24 hours

 ConditionsComfort  
Time TempWeatherWind HumidityBarometerVisibility
7:20 PM
Jul 24
79 °FPleasantly warm.2 mph34%29.86 "HgN/A
6:20 PM79 °FPleasantly warm.3 mph34%29.86 "HgN/A
5:20 PM77 °FPassing clouds.3 mph39%29.89 "HgN/A
4:20 PM79 °FPassing clouds.6 mph37%29.89 "HgN/A
3:20 PM79 °FPassing clouds.6 mph37%29.89 "HgN/A
2:20 PM77 °FPassing clouds.6 mph42%29.89 "HgN/A
1:20 PM75 °FPassing clouds.7 mph47%29.92 "HgN/A
12:20 PM73 °FPassing clouds.10 mph53%29.92 "HgN/A
11:20 AM72 °FPassing clouds.8 mph61%29.92 "HgN/A
10:20 AM70 °FPassing clouds.8 mph60%29.92 "HgN/A
9:20 AM68 °FScattered clouds.7 mph64%29.92 "HgN/A
8:20 AM64 °FScattered clouds.5 mph68%29.92 "HgN/A
7:20 AM61 °FPassing clouds.3 mph83%29.92 "HgN/A
6:20 AM55 °FPassing clouds.1 mph88%29.92 "HgN/A
5:20 AM55 °FCool.2 mph94%29.92 "HgN/A
4:20 AM54 °FCool.No wind94%29.92 "HgN/A
3:20 AM57 °FCool.No wind88%29.92 "HgN/A
2:20 AM59 °FCool.1 mph82%29.95 "HgN/A
1:20 AM61 °FCool.1 mph83%29.95 "HgN/A
12:20 AM63 °FMild.1 mph77%29.95 "HgN/A
11:20 PM
Jul 23
66 °FMild.3 mph68%29.95 "HgN/A
10:20 PM64 °FMild.3 mph78%29.95 "HgN/A
9:20 PM70 °FMild.No wind60%29.95 "HgN/A
8:20 PM73 °FMild.3 mph53%29.95 "HgN/A
Weather by CustomWeather, © 2014

See weather overviewHow to use our weather pages